Regional Weather Roundup
Issued by NWS

Home | Current Version | Previous Version | Graphics & Text | Print | Product List | Glossary On
Versions: 1 2 3 4 5 6 7 8 9 10 11 12 13 14 15 16 17 18 19 20 21 22 23 24 25 26 27 28 29 30 31 32 33 34 35 36 37 38 39 40 41 42 43 44 45 46 47 48 49 50
000
ASUS43 KIND 281809
RWRIN

WEATHER ROUNDUP FOR INDIANA
NATIONAL WEATHER SERVICE INDIANAPOLIS IN
100 PM EST WED JAN 28 2015

NOTE: "FAIR" INDICATES FEW OR NO CLOUDS BELOW 12,000 FEET WITH NO
SIGNIFICANT WEATHER AND/OR OBSTRUCTIONS TO VISIBILITY.

* - STATION DOES NOT REPORT WEATHER SUCH AS PRECIPITATION OR FOG.

+ - STATION NOT QUALITY CONTROLLED BY THE NATIONAL WEATHER SERVICE.
    USE DATA WITH CAUTION...ESPECIALLY DEWPOINT AND RELATIVE
    HUMIDITY OBSERVATIONS.

INZ001>003-010>013-019-020-281900-
NORTHWEST INDIANA

CITY           SKY/WX    TMP DP  RH WIND       PRES   REMARKS
GARY /AIRPORT/ PTSUNNY   34  12  40 S14       30.24  WCI  24
KNOX *+        MOSUNNY   30   1  29 S13       30.26F WCI  20
LA PORTE +     MOSUNNY   32  17  54 S9        30.26F WCI  24
6HR MIN TEMP:  15; 6HR MAX TEMP:  32;

MICHIGAN CITY+ MOSUNNY   32  10  40 S12G17    30.24F WCI  23
MONTICELLO +   MOSUNNY   30  19  63 S9        30.26F WCI  22
RENSSELAER +   MOSUNNY   32  25  74 S14       30.25F WCI  22
VALPARAISO     MOSUNNY   30  17  58 S12       30.24F WCI  20
6HR MIN TEMP:  17; 6HR MAX TEMP:  30;


$$

LMZ046-743>745-281900-
SOUTHERN LAKE MICHIGAN

STATION/POSITION TIME  TEMP WIND        PRES
                       AIR  DIR/SP/G
                 (UTC) (F)  (DEG/KT/KT) (MB)
MICHIGAN CITY    1800   29  140/ 13/ 17   N/A

$$

INZ004-005-014>016-021>024-281900-
NORTH CENTRAL INDIANA

CITY           SKY/WX    TMP DP  RH WIND       PRES   REMARKS
ELKHART        SUNNY     28   5  37 S12       30.27F WCI  18
GOSHEN         PTSUNNY   28   9  44 SE13      30.27F WCI  17
6HR MIN TEMP:  10; 6HR MAX TEMP:  28;

LOGANSPORT +   SUNNY     30  19  64 SE9       30.28F WCI  22
PERU/GRISSOM   SUNNY     28  19  69 SE10      30.27F WCI  19
6HR MIN TEMP:   8; 6HR MAX TEMP:  28;

ROCHESTER +    MOSUNNY   32  18  55 SE8       30.28F WCI  25
SOUTH BEND     FAIR      30  14  51 S12       30.27F WCI  20
6HR MIN TEMP:  16; 6HR MAX TEMP:  30;

WARSAW +       PTSUNNY   28  10  47 S8        30.28F WCI  20

$$

INZ006>009-017-018-025>027-281900-
NORTHEAST INDIANA

CITY           SKY/WX    TMP DP  RH WIND       PRES   REMARKS
ANGOLA *+      SUNNY     25   9  50 S12       30.29F WCI  14
AUBURN +       MOSUNNY   27  10  50 SE3       30.31F
FORT WAYNE     PTSUNNY   24  14  65 SE9       30.31F WCI  14
6HR MIN TEMP:   7; 6HR MAX TEMP:  24;

HUNTINGTON +   MOSUNNY   25   9  50 SE8       30.29F WCI  16
6HR MIN TEMP:   4; 6HR MAX TEMP:  25;


$$

INZ028-029-035-036-043>045-051>053-281900-
WEST CENTRAL INDIANA

CITY           SKY/WX    TMP DP  RH WIND       PRES   REMARKS
CRAWFORDSVL +  FAIR      32  12  43 SE14      30.26F WCI  22
GREENCASTLE +  MOSUNNY   32  14  47 SE8       30.27F WCI  25
LAFAYETTE      MOSUNNY   32  18  56 S12       30.26F WCI  23
6HR MIN TEMP:  15; 6HR MAX TEMP:  33;

TERRE HAUTE    SUNNY     33  20  58 SE13      30.27F WCI  24
6HR MIN TEMP:  20; 6HR MAX TEMP:  33;


$$

INZ030>032-037>040-046>048-054>057-064-065-281900-
CENTRAL INDIANA

CITY           SKY/WX    TMP DP  RH WIND       PRES   REMARKS
ANDERSON       SUNNY     28  16  59 NE12G17   30.30F WCI  18
CP ATTERBURY + SUNNY     32  18  55 S10       30.31F WCI  24
COLUMBUS       MOSUNNY   32  12  43 S7        30.31F WCI  26
GREENWOOD *+   SUNNY     32  16  51 S14       30.29  WCI  22
INDIANAPOLIS   PTSUNNY   29  15  56 SE12      30.28F WCI  19
6HR MIN TEMP:  15; 6HR MAX TEMP:  29;

-EAGLE CREEK   SUNNY     31  15  52 S9        30.27F WCI  23
6HR MIN TEMP:  16; 6HR MAX TEMP:  31;

KOKOMO *+      SUNNY     28  18  64 S14       30.28F WCI  17
MARION +       MOSUNNY   28  16  60 S9        30.29F WCI  19
MT COMFORT *+  SUNNY     32  10  40 S12       30.28F WCI  23
SHELBYVILLE    SUNNY     33  19  56 S13       30.29F WCI  24
6HR MIN TEMP:  16; 6HR MAX TEMP:  33;

ZIONSVILLE +   SUNNY     32  17  53 S9        30.27F WCI  24
6HR MIN TEMP:  16; 6HR MAX TEMP:  32;


$$

INZ033-034-041-042-049-050-058-059-281900-
EAST CENTRAL INDIANA

CITY           SKY/WX    TMP DP  RH WIND       PRES   REMARKS
MUNCIE         MOSUNNY   28  14  55 S13       30.28F WCI  17
6HR MIN TEMP:   7; 6HR MAX TEMP:  28;


$$

INZ060-061-067>069-081>083-085>088-281900-
SOUTHWEST INDIANA

CITY           SKY/WX    TMP DP  RH WIND       PRES   REMARKS
EVANSVILLE     SUNNY     37  21  52 SE12      30.30F
6HR MIN TEMP:  28; 6HR MAX TEMP:  37;

HUNTINGBURG *+ SUNNY     36  16  44 SE9       30.32F
6HR MIN TEMP:  23; 6HR MAX TEMP:  36;

WASHINGTON +   SUNNY     33  15  47 SE12      30.30F WCI  25
6HR MIN TEMP:  24; 6HR MAX TEMP:  33;


$$

INZ062-063-066-070>080-084-089>092-281900-
SOUTH CENTRAL AND SOUTHEAST INDIANA

CITY           SKY/WX    TMP DP  RH WIND       PRES   REMARKS
BLOOMINGTON    SUNNY     33  14  45 S9        30.28F WCI  25
6HR MIN TEMP:  16; 6HR MAX TEMP:  33;

SEYMOUR +      SUNNY     36  18  48 SE10      30.32F

$$



USA.gov is the U.S. government's official web portal to all federal, state and local government web resources and services.